Year,Month,Day,Hour,Minute,Value (Times are PST for temperature in C)
2015,07,19,00,00,21.30
2015,07,19,00,01,21.30
2015,07,19,00,02,21.30
2015,07,19,00,03,21.30
2015,07,19,00,04,21.30
2015,07,19,00,05,21.30
2015,07,19,00,06,21.30
2015,07,19,00,07,21.30
2015,07,19,00,08,21.30
2015,07,19,00,09,21.30
2015,07,19,00,10,21.30
2015,07,19,00,11,21.30
2015,07,19,00,12,21.30
2015,07,19,00,13,21.30
2015,07,19,00,14,21.30
2015,07,19,00,15,21.30
2015,07,19,00,16,21.30
2015,07,19,00,17,21.30
2015,07,19,00,18,21.30
2015,07,19,00,19,21.30
2015,07,19,00,20,21.30
2015,07,19,00,21,21.30
2015,07,19,00,22,21.30
2015,07,19,00,23,21.30
2015,07,19,00,24,21.30
2015,07,19,00,25,21.20
2015,07,19,00,26,21.20
2015,07,19,00,27,21.20
2015,07,19,00,28,21.20
2015,07,19,00,29,21.20
2015,07,19,00,30,21.20
2015,07,19,00,31,21.20
2015,07,19,00,32,21.20
2015,07,19,00,33,21.20
2015,07,19,00,34,21.10
2015,07,19,00,35,21.10
2015,07,19,00,36,21.10
2015,07,19,00,37,21.10
2015,07,19,00,38,21.00
2015,07,19,00,39,21.00
2015,07,19,00,40,21.00
2015,07,19,00,41,20.90
2015,07,19,00,42,20.90
2015,07,19,00,43,20.90
2015,07,19,00,44,20.90
2015,07,19,00,45,20.90
2015,07,19,00,46,20.90
2015,07,19,00,47,20.80
2015,07,19,00,48,20.80
2015,07,19,00,49,20.80
2015,07,19,00,50,20.80
2015,07,19,00,51,20.70
2015,07,19,00,52,20.70
2015,07,19,00,53,20.70
2015,07,19,00,54,20.70
2015,07,19,00,55,20.60
2015,07,19,00,56,20.60
2015,07,19,00,57,20.60
2015,07,19,00,58,20.60
2015,07,19,00,59,20.60
2015,07,19,01,00,20.50
2015,07,19,01,01,20.50
2015,07,19,01,02,20.50
2015,07,19,01,03,20.50
2015,07,19,01,04,20.50
2015,07,19,01,05,20.40
2015,07,19,01,06,20.40
2015,07,19,01,07,20.40
2015,07,19,01,08,20.40
2015,07,19,01,09,20.40
2015,07,19,01,10,20.40
2015,07,19,01,11,20.40
2015,07,19,01,12,20.30
2015,07,19,01,13,20.30
2015,07,19,01,14,20.30
2015,07,19,01,15,20.30
2015,07,19,01,16,20.30
2015,07,19,01,17,20.30
2015,07,19,01,18,20.30
2015,07,19,01,19,20.30
2015,07,19,01,20,20.30
2015,07,19,01,21,20.30
2015,07,19,01,22,20.30
2015,07,19,01,23,20.30
2015,07,19,01,24,20.30
2015,07,19,01,25,20.20
2015,07,19,01,26,20.20
2015,07,19,01,27,20.20
2015,07,19,01,28,20.20
2015,07,19,01,29,20.20
2015,07,19,01,30,20.20
2015,07,19,01,31,20.20
2015,07,19,01,32,20.20
2015,07,19,01,33,20.20
2015,07,19,01,34,20.20
2015,07,19,01,35,20.20
2015,07,19,01,36,20.20
2015,07,19,01,37,20.20
2015,07,19,01,38,20.10
2015,07,19,01,39,20.10
2015,07,19,01,40,20.00
2015,07,19,01,41,19.90
2015,07,19,01,42,19.90
2015,07,19,01,43,19.90
2015,07,19,01,44,19.90
2015,07,19,01,45,19.90
2015,07,19,01,46,19.90
2015,07,19,01,47,19.90
2015,07,19,01,48,19.90
2015,07,19,01,49,20.10
2015,07,19,01,50,20.10
2015,07,19,01,51,20.10
2015,07,19,01,52,20.10
2015,07,19,01,53,20.00
2015,07,19,01,54,19.90
2015,07,19,01,55,19.90
2015,07,19,01,56,19.90
2015,07,19,01,57,19.90
2015,07,19,01,58,19.90
2015,07,19,01,59,19.90
2015,07,19,02,00,19.90
2015,07,19,02,01,19.80
2015,07,19,02,02,19.80
2015,07,19,02,03,19.80
2015,07,19,02,04,19.80
2015,07,19,02,05,19.70
2015,07,19,02,06,19.70
2015,07,19,02,07,19.70
2015,07,19,02,08,19.70
2015,07,19,02,09,19.70
2015,07,19,02,10,19.70
2015,07,19,02,11,19.70
2015,07,19,02,12,19.70
2015,07,19,02,13,19.70
2015,07,19,02,14,19.70
2015,07,19,02,15,19.70
2015,07,19,02,16,19.70
2015,07,19,02,17,19.70
2015,07,19,02,18,19.70
2015,07,19,02,19,19.60
2015,07,19,02,20,19.60
2015,07,19,02,21,19.60
2015,07,19,02,22,19.60
2015,07,19,02,23,19.50
2015,07,19,02,24,19.50
2015,07,19,02,25,19.50
2015,07,19,02,26,19.40
2015,07,19,02,27,19.40
2015,07,19,02,28,19.30
2015,07,19,02,29,19.30
2015,07,19,02,30,19.20
2015,07,19,02,31,19.10
2015,07,19,02,32,19.10
2015,07,19,02,33,19.10
2015,07,19,02,34,19.10
2015,07,19,02,35,19.00
2015,07,19,02,36,18.90
2015,07,19,02,37,18.90
2015,07,19,02,38,18.90
2015,07,19,02,39,18.90
2015,07,19,02,40,18.80
2015,07,19,02,41,18.80
2015,07,19,02,42,18.80
2015,07,19,02,43,18.80
2015,07,19,02,44,18.70
2015,07,19,02,45,18.70
2015,07,19,02,46,18.70
2015,07,19,02,47,18.60
2015,07,19,02,48,18.60
2015,07,19,02,49,18.60
2015,07,19,02,50,18.60
2015,07,19,02,51,18.50
2015,07,19,02,52,18.50
2015,07,19,02,53,18.50
2015,07,19,02,54,18.50
2015,07,19,02,55,18.50
2015,07,19,02,56,18.50
2015,07,19,02,57,18.50
2015,07,19,02,58,18.40
2015,07,19,02,59,18.40
2015,07,19,03,00,18.40
2015,07,19,03,01,18.40
2015,07,19,03,02,18.40
2015,07,19,03,03,18.40
2015,07,19,03,04,18.40
2015,07,19,03,05,18.40
2015,07,19,03,06,18.40
2015,07,19,03,07,18.40
2015,07,19,03,08,18.30
2015,07,19,03,09,18.30
2015,07,19,03,10,18.30
2015,07,19,03,11,18.30
2015,07,19,03,12,18.30
2015,07,19,03,13,18.30
2015,07,19,03,14,18.30
2015,07,19,03,15,18.30
2015,07,19,03,16,18.30
2015,07,19,03,17,18.30
2015,07,19,03,18,18.30
2015,07,19,03,19,18.30
2015,07,19,03,20,18.20
2015,07,19,03,21,18.20
2015,07,19,03,22,18.20
2015,07,19,03,23,18.20
2015,07,19,03,24,18.20
2015,07,19,03,25,18.20
2015,07,19,03,26,18.20
2015,07,19,03,27,18.20
2015,07,19,03,28,18.20
2015,07,19,03,29,18.20
2015,07,19,03,30,18.20
2015,07,19,03,31,18.20
2015,07,19,03,32,18.20
2015,07,19,03,33,18.20
2015,07,19,03,34,18.20
2015,07,19,03,35,18.20
2015,07,19,03,36,18.20
2015,07,19,03,37,18.20
2015,07,19,03,38,18.20
2015,07,19,03,39,18.20
2015,07,19,03,40,18.20
2015,07,19,03,41,18.20
2015,07,19,03,42,18.10
2015,07,19,03,43,17.90
2015,07,19,03,44,17.90
2015,07,19,03,45,17.90
2015,07,19,03,46,17.90
2015,07,19,03,47,17.90
2015,07,19,03,48,17.90
2015,07,19,03,49,17.90
2015,07,19,03,50,17.90
2015,07,19,03,51,17.90
2015,07,19,03,52,17.90
2015,07,19,03,53,17.90
2015,07,19,03,54,17.90
2015,07,19,03,55,17.90
2015,07,19,03,56,17.90
2015,07,19,03,57,17.90
2015,07,19,03,58,17.90
2015,07,19,03,59,17.80
2015,07,19,04,00,17.80
2015,07,19,04,01,17.80
2015,07,19,04,02,17.80
2015,07,19,04,03,17.80
2015,07,19,04,04,17.70
2015,07,19,04,05,17.70
2015,07,19,04,06,17.70
2015,07,19,04,07,17.70
2015,07,19,04,08,17.70
2015,07,19,04,09,17.70
2015,07,19,04,10,17.80
2015,07,19,04,11,17.80
2015,07,19,04,12,17.80
2015,07,19,04,13,17.80
2015,07,19,04,14,17.80
2015,07,19,04,15,17.80
2015,07,19,04,16,17.70
2015,07,19,04,17,17.70
2015,07,19,04,18,17.70
2015,07,19,04,19,17.70
2015,07,19,04,20,17.70
2015,07,19,04,21,17.70
2015,07,19,04,22,17.70
2015,07,19,04,23,17.70
2015,07,19,04,24,17.70
2015,07,19,04,25,17.70
2015,07,19,04,26,17.70
2015,07,19,04,27,17.70
2015,07,19,04,28,17.70
2015,07,19,04,29,17.70
2015,07,19,04,30,17.70
2015,07,19,04,31,17.60
2015,07,19,04,32,17.60
2015,07,19,04,33,17.60
2015,07,19,04,34,17.60
2015,07,19,04,35,17.50
2015,07,19,04,36,17.50
2015,07,19,04,37,17.50
2015,07,19,04,38,17.40
2015,07,19,04,39,17.40
2015,07,19,04,40,17.40
2015,07,19,04,41,17.40
2015,07,19,04,42,17.30
2015,07,19,04,43,17.30
2015,07,19,04,44,17.30
2015,07,19,04,45,17.30
2015,07,19,04,46,17.30
2015,07,19,04,47,17.30
2015,07,19,04,48,17.30
2015,07,19,04,49,17.30
2015,07,19,04,50,17.30
2015,07,19,04,51,17.30
2015,07,19,04,52,17.30
2015,07,19,04,53,17.30
2015,07,19,04,54,17.30
2015,07,19,04,55,17.30
2015,07,19,04,56,17.30
2015,07,19,04,57,17.30
2015,07,19,04,58,17.30
2015,07,19,04,59,17.30
2015,07,19,05,00,17.30
2015,07,19,05,01,17.30
2015,07,19,05,02,17.30
2015,07,19,05,03,17.30
2015,07,19,05,04,17.30
2015,07,19,05,05,17.30
2015,07,19,05,06,17.30
2015,07,19,05,07,17.30
2015,07,19,05,08,17.30
2015,07,19,05,09,17.30
2015,07,19,05,10,17.30
2015,07,19,05,11,17.20
2015,07,19,05,12,17.20
2015,07,19,05,13,17.20
2015,07,19,05,14,17.20
2015,07,19,05,15,17.20
2015,07,19,05,16,17.20
2015,07,19,05,17,17.10
2015,07,19,05,18,17.10
2015,07,19,05,19,17.10
2015,07,19,05,20,17.10
2015,07,19,05,21,17.10
2015,07,19,05,22,17.10
2015,07,19,05,23,17.10
2015,07,19,05,24,17.00
2015,07,19,05,25,17.00
2015,07,19,05,26,17.00
2015,07,19,05,27,17.00
2015,07,19,05,28,17.00
2015,07,19,05,29,17.00
2015,07,19,05,30,17.00
2015,07,19,05,31,17.00
2015,07,19,05,32,16.90
2015,07,19,05,33,16.90
2015,07,19,05,34,16.90
2015,07,19,05,35,16.90
2015,07,19,05,36,16.90
2015,07,19,05,37,16.90
2015,07,19,05,38,16.90
2015,07,19,05,39,16.90
2015,07,19,05,40,16.90
2015,07,19,05,41,16.90
2015,07,19,05,42,16.90
2015,07,19,05,43,16.90
2015,07,19,05,44,16.90
2015,07,19,05,45,16.90
2015,07,19,05,46,16.90
2015,07,19,05,47,16.90
2015,07,19,05,48,16.90
2015,07,19,05,49,16.90
2015,07,19,05,50,16.90
2015,07,19,05,51,16.90
2015,07,19,05,52,16.90
2015,07,19,05,53,16.90
2015,07,19,05,54,16.90
2015,07,19,05,55,16.90
2015,07,19,05,56,16.90
2015,07,19,05,57,16.90
2015,07,19,05,58,16.90
2015,07,19,05,59,16.90
2015,07,19,06,00,16.90
2015,07,19,06,01,16.90
2015,07,19,06,02,16.90
2015,07,19,06,03,16.90
2015,07,19,06,04,16.90
2015,07,19,06,05,16.90
2015,07,19,06,06,16.90
2015,07,19,06,07,16.90
2015,07,19,06,08,16.90
2015,07,19,06,09,16.90
2015,07,19,06,10,16.90
2015,07,19,06,11,16.90
2015,07,19,06,12,16.90
2015,07,19,06,13,16.90
2015,07,19,06,14,16.90
2015,07,19,06,15,16.90
2015,07,19,06,16,16.90
2015,07,19,06,17,16.90
2015,07,19,06,18,16.90
2015,07,19,06,19,17.00
2015,07,19,06,20,17.00
2015,07,19,06,21,17.00
2015,07,19,06,22,17.00
2015,07,19,06,23,17.10
2015,07,19,06,24,17.10
2015,07,19,06,25,17.20
2015,07,19,06,26,17.20
2015,07,19,06,27,17.30
2015,07,19,06,28,17.30
2015,07,19,06,29,17.30
2015,07,19,06,30,17.30
2015,07,19,06,31,17.40
2015,07,19,06,32,17.50
2015,07,19,06,33,17.50
2015,07,19,06,34,17.60
2015,07,19,06,35,17.60
2015,07,19,06,36,17.70
2015,07,19,06,37,17.70
2015,07,19,06,38,17.80
2015,07,19,06,39,17.90
2015,07,19,06,40,18.00
2015,07,19,06,41,18.10
2015,07,19,06,42,18.20
2015,07,19,06,43,18.30
2015,07,19,06,44,18.40
2015,07,19,06,45,18.50
2015,07,19,06,46,18.50
2015,07,19,06,47,18.60
2015,07,19,06,48,18.60
2015,07,19,06,49,18.70
2015,07,19,06,50,18.70
2015,07,19,06,51,18.80
2015,07,19,06,52,18.80
2015,07,19,06,53,18.80
2015,07,19,06,54,18.90
2015,07,19,06,55,18.90
2015,07,19,06,56,18.90
2015,07,19,06,57,18.90
2015,07,19,06,58,18.90
2015,07,19,06,59,18.90
2015,07,19,07,00,19.10
2015,07,19,07,01,19.10
2015,07,19,07,02,19.10
2015,07,19,07,03,19.10
2015,07,19,07,04,19.10
2015,07,19,07,05,19.10
2015,07,19,07,06,19.10
2015,07,19,07,07,19.10
2015,07,19,07,08,19.10
2015,07,19,07,09,19.10
2015,07,19,07,10,19.10
2015,07,19,07,11,19.20
2015,07,19,07,12,19.30
2015,07,19,07,13,19.40
2015,07,19,07,14,19.40
2015,07,19,07,15,19.50
2015,07,19,07,16,19.60
2015,07,19,07,17,19.60
2015,07,19,07,18,19.70
2015,07,19,07,19,19.80
2015,07,19,07,20,19.90
2015,07,19,07,21,19.90
2015,07,19,07,22,19.90
2015,07,19,07,23,20.10
2015,07,19,07,24,20.10
2015,07,19,07,25,20.20
2015,07,19,07,26,20.20
2015,07,19,07,27,20.20
2015,07,19,07,28,20.30
2015,07,19,07,29,20.30
2015,07,19,07,30,20.40
2015,07,19,07,31,20.40
2015,07,19,07,32,20.40
2015,07,19,07,33,20.50
2015,07,19,07,34,20.50
2015,07,19,07,35,20.60
2015,07,19,07,36,20.60
2015,07,19,07,37,20.70
2015,07,19,07,38,20.70
2015,07,19,07,39,20.80
2015,07,19,07,40,20.90
2015,07,19,07,41,21.00
2015,07,19,07,42,21.10
2015,07,19,07,43,21.20
2015,07,19,07,44,21.30
2015,07,19,07,45,21.30
2015,07,19,07,46,21.40
2015,07,19,07,47,21.60
2015,07,19,07,48,21.60
2015,07,19,07,49,21.70
2015,07,19,07,50,21.90
2015,07,19,07,51,22.00
2015,07,19,07,52,22.10
2015,07,19,07,53,22.20
2015,07,19,07,54,22.20
2015,07,19,07,55,22.30
2015,07,19,07,56,22.40
2015,07,19,07,57,22.50
2015,07,19,07,58,22.50
2015,07,19,07,59,22.60
2015,07,19,08,00,22.60
2015,07,19,08,01,22.60
2015,07,19,08,02,22.60
2015,07,19,08,03,22.70
2015,07,19,08,04,22.70
2015,07,19,08,05,22.70
2015,07,19,08,06,22.70
2015,07,19,08,07,22.70
2015,07,19,08,08,22.70
2015,07,19,08,09,22.70
2015,07,19,08,10,22.80
2015,07,19,08,11,22.80
2015,07,19,08,12,22.80
2015,07,19,08,13,22.90
2015,07,19,08,14,22.90
2015,07,19,08,15,22.90
2015,07,19,08,16,22.90
2015,07,19,08,17,22.90
2015,07,19,08,18,23.00
2015,07,19,08,19,23.10
2015,07,19,08,20,23.10
2015,07,19,08,21,23.10
2015,07,19,08,22,23.10
2015,07,19,08,23,23.10
2015,07,19,08,24,23.10
2015,07,19,08,25,23.20
2015,07,19,08,26,23.10
2015,07,19,08,27,23.10
2015,07,19,08,28,23.10
2015,07,19,08,29,23.20
2015,07,19,08,30,23.20
2015,07,19,08,31,23.20
2015,07,19,08,32,23.20
2015,07,19,08,33,23.20
2015,07,19,08,34,23.30
2015,07,19,08,35,23.30
2015,07,19,08,36,23.20
2015,07,19,08,37,23.00
2015,07,19,08,38,22.90
2015,07,19,08,39,22.80
2015,07,19,08,40,22.70
2015,07,19,08,41,22.60
2015,07,19,08,42,22.50
2015,07,19,08,43,22.40
2015,07,19,08,44,22.30
2015,07,19,08,45,22.30
2015,07,19,08,46,22.20
2015,07,19,08,47,22.10
2015,07,19,08,48,22.00
2015,07,19,08,49,21.90
2015,07,19,08,50,21.80
2015,07,19,08,51,21.70
2015,07,19,08,52,21.60
2015,07,19,08,53,21.60
2015,07,19,08,54,21.40
2015,07,19,08,55,21.30
2015,07,19,08,56,21.20
2015,07,19,08,57,21.00
2015,07,19,08,58,20.90
2015,07,19,08,59,20.80
2015,07,19,09,00,20.80
2015,07,19,09,01,20.70
2015,07,19,09,02,20.70
2015,07,19,09,03,20.70
2015,07,19,09,04,20.70
2015,07,19,09,05,20.70
2015,07,19,09,06,20.70
2015,07,19,09,07,20.70
2015,07,19,09,08,20.70
2015,07,19,09,09,20.70
2015,07,19,09,10,20.70
2015,07,19,09,11,20.70
2015,07,19,09,12,20.70
2015,07,19,09,13,20.70
2015,07,19,09,14,20.70
2015,07,19,09,15,20.60
2015,07,19,09,16,20.70
2015,07,19,09,17,20.70
2015,07,19,09,18,20.80
2015,07,19,09,19,20.80
2015,07,19,09,20,20.90
2015,07,19,09,21,21.00
2015,07,19,09,22,21.10
2015,07,19,09,23,21.10
2015,07,19,09,24,21.10
2015,07,19,09,25,21.20
2015,07,19,09,26,21.20
2015,07,19,09,27,21.20
2015,07,19,09,28,21.20
2015,07,19,09,29,21.20
2015,07,19,09,30,21.20
2015,07,19,09,31,21.20
2015,07,19,09,32,21.20
2015,07,19,09,33,21.20
2015,07,19,09,34,21.30
2015,07,19,09,35,21.30
2015,07,19,09,36,21.30
2015,07,19,09,37,21.30
2015,07,19,09,38,21.30
2015,07,19,09,39,21.30
2015,07,19,09,40,21.30
2015,07,19,09,41,21.30
2015,07,19,09,42,21.30
2015,07,19,09,43,21.30
2015,07,19,09,44,21.40
2015,07,19,09,45,21.50
2015,07,19,09,46,21.60
2015,07,19,09,47,21.60
2015,07,19,09,48,21.60
2015,07,19,09,49,21.70
2015,07,19,09,50,21.90
2015,07,19,09,51,22.00
2015,07,19,09,52,22.10
2015,07,19,09,53,22.20
2015,07,19,09,54,22.30
2015,07,19,09,55,22.40
2015,07,19,09,56,22.50
2015,07,19,09,57,22.60
2015,07,19,09,58,22.70
2015,07,19,09,59,22.70
2015,07,19,10,00,22.70
2015,07,19,10,01,22.70
2015,07,19,10,02,22.60
2015,07,19,10,03,22.60
2015,07,19,10,04,22.50
2015,07,19,10,05,22.50
2015,07,19,10,06,22.50
2015,07,19,10,07,22.50
2015,07,19,10,08,22.50
2015,07,19,10,09,22.50
2015,07,19,10,10,22.50
2015,07,19,10,11,22.50
2015,07,19,10,12,22.50
2015,07,19,10,13,22.50
2015,07,19,10,14,22.40
2015,07,19,10,15,22.40
2015,07,19,10,16,22.40
2015,07,19,10,17,22.40
2015,07,19,10,18,22.40
2015,07,19,10,19,22.50
2015,07,19,10,20,22.50
2015,07,19,10,21,22.60
2015,07,19,10,22,22.60
2015,07,19,10,23,22.60
2015,07,19,10,24,22.70
2015,07,19,10,25,22.70
2015,07,19,10,26,22.80
2015,07,19,10,27,22.80
2015,07,19,10,28,22.80
2015,07,19,10,29,22.80
2015,07,19,10,30,22.80
2015,07,19,10,31,22.80
2015,07,19,10,32,22.80
2015,07,19,10,33,22.90
2015,07,19,10,34,23.00
2015,07,19,10,35,23.10
2015,07,19,10,36,23.10
2015,07,19,10,37,23.10
2015,07,19,10,38,23.10
2015,07,19,10,39,23.10
2015,07,19,10,40,23.10
2015,07,19,10,41,23.10
2015,07,19,10,42,23.10
2015,07,19,10,43,23.10
2015,07,19,10,44,23.10
2015,07,19,10,45,23.00
2015,07,19,10,46,22.90
2015,07,19,10,47,22.90
2015,07,19,10,48,22.90
2015,07,19,10,49,22.80
2015,07,19,10,50,22.70
2015,07,19,10,51,22.70
2015,07,19,10,52,22.80
2015,07,19,10,53,22.80
2015,07,19,10,54,22.80
2015,07,19,10,55,22.80
2015,07,19,10,56,22.90
2015,07,19,10,57,23.00
2015,07,19,10,58,23.10
2015,07,19,10,59,23.10
2015,07,19,11,00,23.20
2015,07,19,11,01,23.30
2015,07,19,11,02,23.30
2015,07,19,11,03,23.40
2015,07,19,11,04,23.50
2015,07,19,11,05,23.60
2015,07,19,11,06,23.70
2015,07,19,11,07,23.80
2015,07,19,11,08,23.80
2015,07,19,11,09,23.90
2015,07,19,11,10,24.00
2015,07,19,11,11,24.10
2015,07,19,11,12,24.10
2015,07,19,11,13,24.10
2015,07,19,11,14,24.10
2015,07,19,11,15,24.10
2015,07,19,11,16,24.10
2015,07,19,11,17,24.00
2015,07,19,11,18,23.90
2015,07,19,11,19,23.90
2015,07,19,11,20,23.80
2015,07,19,11,21,23.90
2015,07,19,11,22,23.90
2015,07,19,11,23,23.90
2015,07,19,11,24,23.90
2015,07,19,11,25,24.00
2015,07,19,11,26,24.10
2015,07,19,11,27,24.10
2015,07,19,11,28,24.10
2015,07,19,11,29,24.20
2015,07,19,11,30,24.40
2015,07,19,11,31,24.50
2015,07,19,11,32,24.60
2015,07,19,11,33,24.60
2015,07,19,11,34,24.60
2015,07,19,11,35,24.60
2015,07,19,11,36,24.60
2015,07,19,11,37,24.70
2015,07,19,11,38,24.70
2015,07,19,11,39,24.60
2015,07,19,11,40,24.60
2015,07,19,11,41,24.50
2015,07,19,11,42,24.50
2015,07,19,11,43,24.40
2015,07,19,11,44,24.40
2015,07,19,11,45,24.40
2015,07,19,11,46,24.40
2015,07,19,11,47,24.40
2015,07,19,11,48,24.40
2015,07,19,11,49,24.40
2015,07,19,11,50,24.40
2015,07,19,11,51,24.40
2015,07,19,11,52,24.30
2015,07,19,11,53,24.30
2015,07,19,11,54,24.20
2015,07,19,11,55,24.20
2015,07,19,11,56,24.30
2015,07,19,11,57,24.40
2015,07,19,11,58,24.40
2015,07,19,11,59,24.50
2015,07,19,12,00,24.50
2015,07,19,12,01,24.50
2015,07,19,12,02,24.60
2015,07,19,12,03,24.60
2015,07,19,12,04,24.60
2015,07,19,12,05,24.70
2015,07,19,12,06,24.70
2015,07,19,12,07,24.80
2015,07,19,12,08,24.80
2015,07,19,12,09,24.80
2015,07,19,12,10,24.80
2015,07,19,12,11,24.70
2015,07,19,12,12,24.60
2015,07,19,12,13,24.60
2015,07,19,12,14,24.60
2015,07,19,12,15,24.60
2015,07,19,12,16,24.60
2015,07,19,12,17,24.70
2015,07,19,12,18,24.70
2015,07,19,12,19,24.80
2015,07,19,12,20,24.80
2015,07,19,12,21,24.70
2015,07,19,12,22,24.70
2015,07,19,12,23,24.70
2015,07,19,12,24,24.80
2015,07,19,12,25,24.90
2015,07,19,12,26,25.00
2015,07,19,12,27,25.10
2015,07,19,12,28,25.10
2015,07,19,12,29,25.20
2015,07,19,12,30,25.20
2015,07,19,12,31,25.20
2015,07,19,12,32,25.20
2015,07,19,12,33,25.20
2015,07,19,12,34,25.20
2015,07,19,12,35,25.10
2015,07,19,12,36,25.00
2015,07,19,12,37,25.00
2015,07,19,12,38,25.10
2015,07,19,12,39,25.10
2015,07,19,12,40,25.10
2015,07,19,12,41,25.10
2015,07,19,12,42,25.10
2015,07,19,12,43,25.00
2015,07,19,12,44,24.80
2015,07,19,12,45,24.80
2015,07,19,12,46,24.80
2015,07,19,12,47,24.70
2015,07,19,12,48,24.60
2015,07,19,12,49,24.50
2015,07,19,12,50,24.50
2015,07,19,12,51,24.50
2015,07,19,12,52,24.50
2015,07,19,12,53,24.50
2015,07,19,12,54,24.60
2015,07,19,12,55,24.60
2015,07,19,12,56,24.60
2015,07,19,12,57,24.60
2015,07,19,12,58,24.50
2015,07,19,12,59,24.50
2015,07,19,13,00,24.60
2015,07,19,13,01,24.60
2015,07,19,13,02,24.60
2015,07,19,13,03,24.70
2015,07,19,13,04,24.70
2015,07,19,13,05,24.80
2015,07,19,13,06,24.80
2015,07,19,13,07,24.90
2015,07,19,13,08,24.80
2015,07,19,13,09,24.80
2015,07,19,13,10,24.80
2015,07,19,13,11,24.90
2015,07,19,13,12,24.90
2015,07,19,13,13,24.90
2015,07,19,13,14,24.90
2015,07,19,13,15,24.80
2015,07,19,13,16,24.80
2015,07,19,13,17,24.70
2015,07,19,13,18,24.60
2015,07,19,13,19,24.60
2015,07,19,13,20,24.70
2015,07,19,13,21,24.80
2015,07,19,13,22,24.90
2015,07,19,13,23,25.00
2015,07,19,13,24,25.00
2015,07,19,13,25,25.10
2015,07,19,13,26,25.20
2015,07,19,13,27,25.20
2015,07,19,13,28,25.20
2015,07,19,13,29,25.30
2015,07,19,13,30,25.40
2015,07,19,13,31,25.50
2015,07,19,13,32,25.60
2015,07,19,13,33,25.60
2015,07,19,13,34,25.60
2015,07,19,13,35,25.70
2015,07,19,13,36,25.80
2015,07,19,13,37,25.90
2015,07,19,13,38,26.00
2015,07,19,13,39,26.10
2015,07,19,13,40,26.30
2015,07,19,13,41,26.40
2015,07,19,13,42,26.40
2015,07,19,13,43,26.40
2015,07,19,13,44,26.40
2015,07,19,13,45,26.40
2015,07,19,13,46,26.30
2015,07,19,13,47,26.20
2015,07,19,13,48,26.10
2015,07,19,13,49,26.10
2015,07,19,13,50,26.10
2015,07,19,13,51,26.10
2015,07,19,13,52,26.20
2015,07,19,13,53,26.30
2015,07,19,13,54,26.30
2015,07,19,13,55,26.30
2015,07,19,13,56,26.20
2015,07,19,13,57,26.20
2015,07,19,13,58,26.30
2015,07,19,13,59,26.30
2015,07,19,14,00,26.30
2015,07,19,14,01,26.50
2015,07,19,14,02,26.60
2015,07,19,14,03,26.60
2015,07,19,14,04,26.70
2015,07,19,14,05,26.80
2015,07,19,14,06,27.00
2015,07,19,14,07,27.10
2015,07,19,14,08,27.20
2015,07,19,14,09,27.20
2015,07,19,14,10,27.30
2015,07,19,14,11,27.30
2015,07,19,14,12,27.30
2015,07,19,14,13,27.30
2015,07,19,14,14,27.30
2015,07,19,14,15,27.30
2015,07,19,14,16,27.30
2015,07,19,14,17,27.30
2015,07,19,14,18,27.30
2015,07,19,14,19,27.30
2015,07,19,14,20,27.30
2015,07,19,14,21,27.30
2015,07,19,14,22,27.30
2015,07,19,14,23,27.30
2015,07,19,14,24,27.30
2015,07,19,14,25,27.20
2015,07,19,14,26,27.20
2015,07,19,14,27,27.30
2015,07,19,14,28,27.30
2015,07,19,14,29,27.30
2015,07,19,14,30,27.30
2015,07,19,14,31,27.30
2015,07,19,14,32,27.30
2015,07,19,14,33,27.40
2015,07,19,14,34,27.50
2015,07,19,14,35,27.60
2015,07,19,14,36,27.70
2015,07,19,14,37,27.70
2015,07,19,14,38,27.70
2015,07,19,14,39,27.70
2015,07,19,14,40,27.80
2015,07,19,14,41,27.80
2015,07,19,14,42,28.00
2015,07,19,14,43,28.00
2015,07,19,14,44,28.00
2015,07,19,14,45,28.20
2015,07,19,14,46,28.20
2015,07,19,14,47,28.20
2015,07,19,14,48,28.10
2015,07,19,14,49,28.00
2015,07,19,14,50,28.00
2015,07,19,14,51,28.10
2015,07,19,14,52,28.10
2015,07,19,14,53,28.10
2015,07,19,14,54,28.10
2015,07,19,14,55,28.10
2015,07,19,14,56,28.10
2015,07,19,14,57,28.10
2015,07,19,14,58,28.10
2015,07,19,14,59,28.00
2015,07,19,15,00,27.90
2015,07,19,15,01,27.80
2015,07,19,15,02,27.70
2015,07,19,15,03,27.70
2015,07,19,15,04,27.70
2015,07,19,15,05,27.70
2015,07,19,15,06,27.70
2015,07,19,15,07,27.70
2015,07,19,15,08,27.70
2015,07,19,15,09,27.80
2015,07,19,15,10,27.90
2015,07,19,15,11,27.90
2015,07,19,15,12,28.00
2015,07,19,15,13,28.20
2015,07,19,15,14,28.20
2015,07,19,15,15,28.30
2015,07,19,15,16,28.30
2015,07,19,15,17,28.30
2015,07,19,15,18,28.40
2015,07,19,15,19,28.40
2015,07,19,15,20,28.40
2015,07,19,15,21,28.30
2015,07,19,15,22,28.30
2015,07,19,15,23,28.30
2015,07,19,15,24,28.30
2015,07,19,15,25,28.30
2015,07,19,15,26,28.30
2015,07,19,15,27,28.20
2015,07,19,15,28,28.20
2015,07,19,15,29,28.20
2015,07,19,15,30,28.10
2015,07,19,15,31,28.10
2015,07,19,15,32,28.20
2015,07,19,15,33,28.20
2015,07,19,15,34,28.20
2015,07,19,15,35,28.30
2015,07,19,15,36,28.30
2015,07,19,15,37,28.40
2015,07,19,15,38,28.40
2015,07,19,15,39,28.50
2015,07,19,15,40,28.60
2015,07,19,15,41,28.60
2015,07,19,15,42,28.60
2015,07,19,15,43,28.50
2015,07,19,15,44,28.40
2015,07,19,15,45,28.40
2015,07,19,15,46,28.30
2015,07,19,15,47,28.30
2015,07,19,15,48,28.30
2015,07,19,15,49,28.30
2015,07,19,15,50,28.30
2015,07,19,15,51,28.30
2015,07,19,15,52,28.30
2015,07,19,15,53,28.40
2015,07,19,15,54,28.40
2015,07,19,15,55,28.40
2015,07,19,15,56,28.40
2015,07,19,15,57,28.40
2015,07,19,15,58,28.40
2015,07,19,15,59,28.40
2015,07,19,16,00,28.30
2015,07,19,16,01,28.20
2015,07,19,16,02,28.20
2015,07,19,16,03,28.20
2015,07,19,16,04,28.20
2015,07,19,16,05,28.10
2015,07,19,16,06,28.10
2015,07,19,16,07,28.10
2015,07,19,16,08,28.10
2015,07,19,16,09,28.00
2015,07,19,16,10,28.00
2015,07,19,16,11,27.90
2015,07,19,16,12,27.70
2015,07,19,16,13,27.70
2015,07,19,16,14,27.70
2015,07,19,16,15,27.70
2015,07,19,16,16,27.60
2015,07,19,16,17,27.60
2015,07,19,16,18,27.60
2015,07,19,16,19,27.60
2015,07,19,16,20,27.60
2015,07,19,16,21,27.70
2015,07,19,16,22,27.70
2015,07,19,16,23,27.70
2015,07,19,16,24,27.70
2015,07,19,16,25,27.70
2015,07,19,16,26,27.60
2015,07,19,16,27,27.60
2015,07,19,16,28,27.50
2015,07,19,16,29,27.40
2015,07,19,16,30,27.40
2015,07,19,16,31,27.40
2015,07,19,16,32,27.30
2015,07,19,16,33,27.20
2015,07,19,16,34,27.20
2015,07,19,16,35,27.10
2015,07,19,16,36,27.10
2015,07,19,16,37,26.90
2015,07,19,16,38,26.80
2015,07,19,16,39,26.80
2015,07,19,16,40,26.90
2015,07,19,16,41,27.00
2015,07,19,16,42,27.20
2015,07,19,16,43,27.20
2015,07,19,16,44,27.30
2015,07,19,16,45,27.30
2015,07,19,16,46,27.30
2015,07,19,16,47,27.20
2015,07,19,16,48,27.10
2015,07,19,16,49,27.10
2015,07,19,16,50,27.10
2015,07,19,16,51,27.10
2015,07,19,16,52,27.10
2015,07,19,16,53,27.10
2015,07,19,16,54,27.20
2015,07,19,16,55,27.30
2015,07,19,16,56,27.30
2015,07,19,16,57,27.30
2015,07,19,16,58,27.40
2015,07,19,16,59,27.60
2015,07,19,17,00,27.70
2015,07,19,17,01,27.90
2015,07,19,17,02,28.00
2015,07,19,17,03,28.00
2015,07,19,17,04,28.20
2015,07,19,17,05,28.30
2015,07,19,17,06,28.30
2015,07,19,17,07,28.30
2015,07,19,17,08,28.30
2015,07,19,17,09,28.30
2015,07,19,17,10,28.40
2015,07,19,17,11,28.40
2015,07,19,17,12,28.40
2015,07,19,17,13,28.60
2015,07,19,17,14,28.70
2015,07,19,17,15,28.70
2015,07,19,17,16,28.70
2015,07,19,17,17,28.60
2015,07,19,17,18,28.50
2015,07,19,17,19,28.40